Temp
60 59 59 59 60 60 61 60 61 60 60 60 60 60 61 61 61 61 60 59 59 60 60 60 60 61 60 56 60 74 71 71 73 71 69 66 62 61 58 56 59 56 60 61 64 62 60
59 59 59 59 59 59 59 58 58 58 58 59 59 59 59 60 60 60 60 59 59 59 59 59 60 60 55 48 73 75 73 73 73 69 68 65 63 64 62 58 54 60 61 61 60 60 60
60 59 59 58 58 58 58 57 57 57 57 57 57 57 57 58 59 59 59 59 58 58 59 59 60 59 55 55 70 70 70 70 70 70 66 69 68 61 61 59 62 62 56 56 59 57 55
59 59 59 58 57 57 57 57 57 56 56 56 57 56 56 57 57 57 57 57 57 57 58 59 59 58 52 71 70 67 68 67 71 71 69 71 70 64 60 63 60 54 52 46 54 59 59
59 59 59 58 57 57 57 56 56 55 55 55 55 56 56 56 56 56 56 56 57 58 58 59 56 54 51 69 64 70 69 64 69 71 69 75 66 60 57 52 48 47 41 45 51 59 56
60 59 58 58 57 57 57 56 56 55 55 55 55 55 55 55 55 55 55 55 57 56 59 61 60 52 56 59 69 72 69 68 64 66 64 61 55 51 48 48 41 42 42 40 46 53 52
59 59 59 59 58 58 58 57 57 55 55 55 55 55 56 55 55 55 54 55 51 51 52 53 54 54 59 65 71 68 71 67 65 59 52 54 47 45 51 50 52 49 45 44 48 56 52
57 57 58 58 58 58 58 58 57 56 55 55 55 55 55 56 55 55 54 51 52 51 44 55 55 56 60 62 54 62 70 60 57 51 54 48 45 56 57 54 51 49 45 45 50 56 53
56 56 57 57 57 57 58 58 57 56 55 55 55 55 55 55 55 53 52 52 55 53 43 50 53 54 57 60 52 55 63 61 55 52 50 48 52 59 55 52 49 48 46 46 48 51 49
55 55 55 56 56 56 56 56 57 57 56 55 55 55 54 54 50 51 50 56 56 55 37 44 47 52 58 59 52 62 65 61 56 52 53 50 57 55 52 50 52 44 53 53 50 46 39
55 55 55 55 55 55 54 55 55 55 56 55 55 55 54 53 50 49 53 55 55 51 26 50 50 63 60 53 57 57 65 60 52 54 54 48 51 51 49 51 54 48 56 53 52 44 40
55 55 55 55 54 54 54 54 54 54 55 55 55 55 54 52 50 52 53 54 51 35 25 45 53 50 48 52 54 59 55 60 60 55 56 53 59 56 54 58 57 59 52 49 45 43 34
53 54 54 54 54 54 54 54 54 54 54 54 55 55 52 53 46 53 52 48 33 28 48 44 48 51 49 47 48 52 50 47 48 42 43 51 52 57 59 51 55 52 46 35 33 31 33
53 53 53 53 54 54 54 53 53 53 53 53 53 53 51 50 51 52 49 37 26 39 42 53 52 53 45 48 48 50 47 43 51 51 46 41 39 50 56 52 48 48 48 35 29 28 34
52 53 53 53 54 54 53 53 53 53 53 53 52 46 47 46 49 50 40 27 29 39 47 47 50 44 44 48 49 49 44 43 49 52 43 41 43 53 56 59 56 48 43 51 39 34 29
53 53 53 53 53 53 53 53 53 52 52 52 45 42 46 47 48 46 35 31 34 43 47 48 41 45 41 45 45 45 46 49 49 53 56 47 38 49 52 56 57 51 52 37 33 27 26
52 52 52 52 52 53 53 52 52 52 52 52 41 38 47 48 49 40 31 30 37 46 47 43 43 42 43 43 45 43 45 49 51 52 53 48 43 39 46 45 45 45 44 39 36 32 27
52 52 51 51 52 52 52 52 52 52 51 47 38 31 46 48 35 34 32 36 43 42 46 45 45 44 42 44 43 43 43 47 52 51 45 48 41 32 40 49 54 49 45 40 31 29 32
51 51 51 51 51 51 51 51 52 51 51 39 32 35 45 44 29 31 35 37 40 39 41 42 42 45 46 41 37 43 44 48 50 50 47 46 35 31 34 40 45 44 46 48 43 36 31
50 51 51 51 50 50 50 51 51 51 51 39 30 25 33 38 38 33 33 33 34 42 40 43 42 43 40 38 43 40 42 46 48 49 48 48 39 33 30 35 39 36 44 47 43 31 32
50 50 50 50 50 51 51 51 51 51 50 37 28 24 34 28 30 33 34 33 33 32 41 43 40 39 37 33 35 36 41 43 46 48 47 45 33 33 37 42 42 40 37 41 39 39 34
50 50 50 50 50 50 50 50 50 50 50 33 25 25 30 30 33 33 32 32 32 35 38 37 36 41 39 35 37 35 38 39 40 42 42 43 33 35 31 40 40 34 37 39 39 41 39
49 49 49 49 50 50 50 50 50 50 47 30 28 35 32 28 27 30 31 33 34 37 40 43 41 40 36 39 43 45 45 43 41 39 38 37 31 30 29 38 36 29 34 36 40 42 43
49 49 49 49 49 50 50 50 50 50 48 33 32 31 25 20 25 26 32 33 31 32 33 39 44 40 44 48 45 43 41 41 41 41 42 34 32 32 28 30 23 36 43 45 42 42 44
49 49 49 49 49 49 49 49 49 50 49 35 33 32 27 20 28 30 31 33 36 37 35 36 42 46 48 42 35 32 32 34 37 39 39 38 33 30 26 25 31 38 40 40 38 38 44
49 49 49 49 49 49 49 49 49 49 49 41 35 36 31 21 26 35 34 34 30 32 34 36 43 47 45 37 33 26 23 29 29 34 41 38 36 32 28 25 23 32 44 47 47 31 44
48 48 49 49 49 49 49 49 49 49 49 43 36 42 33 22 31 33 29 31 32 32 31 35 39 38 41 33 29 27 28 36 28 28 31 32 31 29 28 27 29 39 45 46 29 31 43
48 48 48 48 48 48 48 48 48 48 48 43 39 42 37 26 32 37 39 35 35 33 27 35 35 35 35 29 29 29 28 30 30 35 31 31 30 28 29 27 25 44 43 36 40 41 42
48 48 48 48 48 48 48 48 48 46 46 46 37 41 42 32 30 40 42 44 43 42 36 35 33 34 35 30 31 32 28 31 30 27 36 30 35 30 33 32 41 44 42 44 45 43 41
MSLP
1019.10 1019.10 1018.93 1018.95 1018.34 1018.59 1018.38 1018.18 1018.07 1018.17 1018.10 1018.56 1018.64 1018.69 1018.65 1018.69 1018.84 1018.88 1018.80 1018.79 1018.94 1018.82 1018.77 1018.66 1018.40 1017.88 1017.18 1016.40 1014.29 1012.32 1012.22 1012.36 1012.26 1012.44 1012.26 1012.43 1012.13 1011.81 1011.91 1011.48 1011.34 1011.11 1010.39 1009.93 1009.50 1009.57 1009.97
1019.11 1019.13 1019.32 1019.09 1018.71 1018.69 1018.45 1018.53 1018.42 1018.17 1018.20 1018.25 1018.44 1018.43 1018.24 1018.38 1018.53 1018.68 1018.55 1018.50 1018.63 1018.73 1018.77 1018.68 1018.21 1018.22 1017.62 1016.15 1012.92 1012.29 1012.29 1012.32 1012.47 1012.46 1012.17 1012.30 1011.90 1011.88 1011.87 1011.47 1011.50 1010.85 1010.44 1010.03 1009.79 1009.88 1010.18
1018.71 1018.99 1019.05 1019.14 1019.18 1018.83 1018.59 1018.73 1018.52 1018.54 1018.60 1018.69 1018.76 1018.43 1018.35 1018.19 1018.27 1018.28 1018.29 1018.28 1018.31 1018.46 1018.51 1018.39 1018.47 1018.19 1017.18 1014.92 1012.95 1012.47 1012.44 1012.24 1012.28 1012.44 1012.26 1011.97 1011.83 1011.85 1011.86 1011.59 1011.37 1010.92 1010.90 1010.34 1010.04 1010.10 1010.76
1018.39 1018.70 1018.71 1018.90 1018.85 1019.13 1019.06 1018.85 1018.73 1018.58 1018.78 1018.90 1018.86 1018.84 1018.58 1018.52 1018.34 1018.31 1018.20 1018.21 1018.17 1018.00 1018.28 1018.36 1018.32 1018.13 1015.69 1013.39 1012.72 1012.33 1012.13 1011.80 1011.76 1011.77 1011.97 1011.70 1011.67 1011.71 1011.86 1011.72 1011.62 1011.53 1011.41 1010.94 1010.08 1010.29 1010.71
1018.01 1018.36 1018.55 1018.71 1018.69 1018.70 1019.09 1019.03 1019.01 1018.69 1018.75 1018.90 1018.64 1018.76 1018.97 1018.40 1018.54 1018.30 1017.86 1018.02 1017.87 1017.81 1017.89 1018.06 1018.17 1017.92 1014.70 1012.86 1012.40 1010.83 1011.27 1011.39 1011.02 1011.02 1011.20 1011.31 1011.57 1011.84 1011.91 1012.32 1012.51 1012.40 1011.97 1011.51 1010.93 1010.30 1010.68
1017.91 1018.04 1018.15 1018.40 1018.45 1018.51 1018.71 1018.68 1018.67 1018.88 1018.65 1018.83 1018.63 1018.55 1018.50 1018.51 1018.53 1018.42 1017.93 1017.42 1017.57 1018.05 1017.43 1017.45 1017.32 1017.54 1014.62 1012.39 1011.17 1010.47 1010.24 1010.67 1010.79 1010.77 1011.19 1011.44 1012.19 1012.30 1012.62 1012.47 1012.46 1012.41 1012.36 1011.77 1011.35 1010.57 1010.83
1017.66 1017.75 1017.80 1017.79 1017.96 1018.11 1018.31 1018.51 1018.43 1018.61 1018.49 1018.64 1018.64 1018.41 1018.50 1018.35 1018.47 1018.34 1017.97 1017.35 1018.02 1018.27 1017.49 1015.97 1015.60 1014.70 1013.10 1012.17 1011.36 1010.38 1010.07 1010.20 1010.39 1011.05 1011.49 1011.92 1012.67 1012.11 1011.64 1011.90 1012.05 1012.34 1012.28 1011.90 1011.26 1010.57 1010.89
1017.31 1017.49 1017.61 1017.48 1017.58 1017.62 1017.81 1018.06 1018.31 1018.32 1018.46 1018.43 1018.45 1018.37 1018.26 1018.52 1018.46 1018.07 1018.04 1017.76 1018.15 1018.87 1017.26 1015.89 1015.06 1014.17 1013.48 1013.08 1012.68 1010.70 1010.44 1010.49 1010.66 1011.18 1011.61 1012.39 1011.61 1010.71 1011.80 1011.93 1011.98 1012.21 1012.33 1011.73 1010.99 1010.40 1010.95
1016.92 1017.26 1017.31 1017.34 1017.32 1017.47 1017.55 1017.63 1017.94 1018.10 1018.11 1018.22 1018.28 1018.10 1018.13 1018.47 1018.41 1018.29 1018.15 1017.87 1017.98 1018.40 1017.89 1014.77 1013.60 1012.32 1011.77 1012.14 1010.55 1010.22 1010.81 1010.24 1010.19 1010.70 1011.18 1010.98 1010.59 1010.43 1011.22 1011.36 1011.66 1011.58 1011.75 1011.51 1011.24 1010.50 1010.51
1016.57 1016.84 1017.04 1017.21 1017.07 1017.14 1017.27 1017.32 1017.52 1017.89 1017.93 1017.96 1018.07 1018.07 1018.13 1018.48 1018.75 1018.00 1017.94 1017.78 1017.85 1017.74 1017.57 1013.61 1012.27 1010.36 1009.92 1010.25 1009.00 1008.87 1008.80 1009.68 1009.56 1009.66 1010.51 1010.35 1010.22 1010.23 1010.37 1010.57 1010.86 1010.73 1010.59 1010.75 1010.93 1011.03 1011.07
1016.25 1016.30 1016.68 1017.00 1016.90 1016.99 1017.23 1017.22 1017.07 1017.64 1017.74 1017.65 1017.67 1017.74 1017.76 1018.12 1018.02 1017.80 1017.63 1017.49 1017.99 1018.03 1016.28 1012.01 1010.54 1009.15 1008.96 1009.42 1008.32 1007.45 1007.35 1008.95 1008.35 1008.81 1009.75 1008.75 1008.88 1009.09 1009.28 1009.30 1009.87 1009.77 1009.74 1010.12 1010.47 1010.97 1011.24
1015.81 1016.02 1016.35 1016.46 1016.62 1016.82 1016.99 1016.97 1017.03 1017.43 1017.59 1017.52 1017.30 1017.37 1017.72 1017.72 1017.96 1017.64 1017.51 1017.60 1018.13 1017.48 1014.22 1011.00 1009.32 1008.86 1009.20 1009.00 1008.40 1007.47 1007.77 1008.22 1008.50 1008.79 1008.62 1008.47 1008.33 1008.32 1008.10 1008.27 1008.88 1009.04 1009.65 1010.22 1010.93 1011.32 1011.21
1015.37 1015.65 1015.88 1016.10 1016.30 1016.49 1016.58 1016.60 1016.88 1017.44 1017.45 1017.27 1017.07 1017.11 1017.61 1017.73 1017.81 1017.59 1017.54 1018.15 1017.20 1015.11 1011.72 1009.68 1008.26 1008.30 1008.40 1008.55 1008.37 1008.01 1008.19 1008.33 1007.74 1008.42 1008.03 1008.46 1008.10 1007.86 1007.73 1007.90 1008.29 1008.90 1009.55 1010.88 1011.78 1012.04 1010.58
1014.82 1014.96 1015.29 1015.55 1015.80 1015.91 1016.02 1016.48 1016.91 1017.10 1017.10 1017.18 1017.11 1017.09 1017.15 1017.30 1017.72 1017.72 1017.94 1018.22 1015.84 1012.39 1010.44 1008.49 1008.22 1007.58 1008.17 1007.91 1007.79 1007.77 1008.06 1008.34 1008.36 1007.47 1007.61 1007.79 1007.69 1007.49 1006.82 1007.16 1007.60 1008.35 1009.11 1010.07 1011.39 1012.10 1011.36
1014.20 1014.42 1014.57 1014.87 1015.16 1015.45 1015.78 1016.27 1016.54 1016.75 1016.93 1016.99 1017.15 1017.07 1017.23 1017.00 1017.49 1017.78 1018.20 1016.98 1014.53 1011.93 1010.28 1009.36 1008.65 1008.21 1007.75 1007.57 1007.43 1007.51 1007.60 1007.55 1007.13 1007.32 1007.55 1007.32 1007.30 1006.66 1006.21 1006.32 1007.38 1008.08 1008.90 1009.73 1011.04 1012.74 1012.69
1013.58 1013.91 1014.17 1014.24 1014.62 1014.94 1015.36 1015.74 1016.22 1016.53 1016.71 1016.89 1017.22 1017.16 1016.43 1016.53 1017.02 1017.66 1017.15 1015.86 1013.87 1011.99 1010.93 1010.07 1008.97 1008.38 1007.98 1007.35 1007.41 1007.45 1006.97 1006.41 1006.58 1006.51 1006.67 1007.40 1007.81 1007.39 1006.52 1006.25 1006.48 1007.29 1008.76 1010.23 1012.07 1012.87 1013.04
1013.02 1013.20 1013.66 1013.78 1014.18 1014.35 1014.89 1015.39 1015.84 1016.26 1016.52 1016.70 1017.22 1017.02 1015.93 1015.73 1016.73 1016.90 1015.52 1014.82 1013.18 1012.21 1011.83 1011.31 1009.59 1008.55 1008.24 1007.86 1007.42 1007.20 1006.86 1006.31 1006.04 1006.18 1006.66 1007.52 1008.10 1008.10 1007.41 1006.39 1006.99 1007.74 1008.41 1010.61 1012.24 1012.61 1012.60
1012.42 1012.60 1012.96 1013.33 1013.68 1013.99 1014.46 1015.00 1015.48 1015.94 1016.33 1016.74 1017.10 1016.98 1015.71 1015.65 1016.27 1015.16 1014.71 1013.72 1012.97 1012.25 1011.72 1011.60 1010.39 1009.09 1008.82 1008.37 1007.79 1007.55 1007.10 1006.68 1006.32 1006.43 1007.28 1007.81 1008.75 1008.55 1007.94 1007.12 1006.90 1007.30 1008.32 1009.66 1011.03 1012.15 1012.38
1011.60 1011.99 1012.32 1012.67 1013.10 1013.47 1013.97 1014.45 1015.06 1015.51 1016.05 1016.92 1017.28 1016.77 1015.91 1015.77 1014.89 1014.79 1014.49 1013.52 1013.35 1012.34 1011.75 1011.87 1010.90 1009.96 1009.51 1008.87 1008.67 1007.80 1007.36 1006.97 1006.87 1006.89 1007.22 1007.99 1009.04 1009.25 1008.54 1008.26 1007.64 1007.69 1008.22 1009.30 1010.18 1011.09 1011.61
1010.73 1011.12 1011.54 1012.02 1012.45 1012.91 1013.41 1013.90 1014.47 1015.06 1015.66 1016.66 1017.73 1017.26 1016.42 1015.71 1014.70 1014.73 1014.40 1013.33 1013.02 1011.85 1012.48 1011.58 1011.11 1010.88 1010.36 1009.55 1009.10 1008.62 1007.95 1007.73 1007.66 1007.35 1008.01 1008.65 1009.30 1009.36 1008.94 1008.79 1008.65 1008.45 1008.31 1008.63 1009.88 1010.84 1010.97
1009.64 1010.07 1010.58 1011.09 1011.59 1012.08 1012.72 1013.28 1013.94 1014.58 1015.20 1016.35 1017.41 1017.01 1015.94 1015.39 1014.97 1014.52 1014.54 1013.62 1012.76 1012.18 1011.75 1011.49 1011.37 1010.91 1010.79 1010.26 1009.70 1009.40 1008.75 1008.39 1008.34 1008.43 1008.83 1008.88 1009.94 1010.13 1009.83 1009.48 1009.17 1009.12 1009.45 1009.41 1009.17 1009.44 1009.88
1008.34 1008.87 1009.42 1009.99 1010.58 1011.16 1011.81 1012.48 1013.27 1013.99 1014.73 1016.10 1016.88 1016.98 1016.33 1015.74 1015.01 1014.44 1013.80 1012.83 1012.53 1011.02 1011.60 1011.22 1011.06 1010.39 1010.49 1010.61 1010.28 1009.71 1009.25 1009.01 1008.66 1008.91 1008.83 1008.88 1009.67 1009.91 1010.77 1010.35 1009.99 1009.78 1009.31 1008.89 1009.22 1009.14 1008.77
1006.78 1007.40 1007.99 1008.65 1009.33 1010.06 1010.77 1011.54 1012.32 1013.01 1014.07 1014.96 1015.65 1015.78 1015.91 1015.21 1014.88 1014.71 1013.52 1012.50 1011.86 1011.37 1011.17 1010.53 1010.30 1010.28 1010.08 1009.36 1010.11 1009.87 1009.59 1009.39 1009.50 1009.45 1009.45 1009.87 1010.48 1011.02 1010.51 1010.25 1010.27 1009.91 1008.45 1008.84 1008.50 1008.32 1008.25
1005.12 1005.81 1006.52 1007.23 1007.99 1008.76 1009.54 1010.33 1011.18 1011.92 1012.54 1013.78 1014.66 1015.25 1016.05 1015.22 1014.96 1014.12 1013.47 1012.92 1012.49 1012.09 1011.11 1010.24 1009.68 1009.65 1007.95 1009.39 1009.82 1009.89 1010.06 1010.03 1009.50 1009.44 1009.55 1010.75 1010.75 1011.19 1011.15 1010.66 1009.72 1007.53 1006.98 1007.07 1007.31 1007.26 1007.52
1003.46 1004.20 1004.95 1005.70 1006.49 1007.31 1008.19 1009.07 1009.86 1010.69 1011.49 1012.86 1013.68 1014.16 1014.81 1014.63 1014.07 1013.63 1013.14 1012.75 1011.93 1011.61 1010.55 1009.92 1009.40 1008.33 1008.90 1009.52 1010.16 1010.29 1010.16 1010.39 1009.47 1009.48 1009.57 1010.64 1010.62 1010.97 1011.21 1010.45 1009.07 1007.26 1007.06 1007.04 1006.97 1006.73 1006.61
1001.90 1002.69 1003.47 1004.25 1005.05 1005.89 1006.78 1007.70 1008.59 1009.47 1010.46 1011.76 1012.43 1013.00 1013.95 1014.33 1013.19 1012.79 1012.31 1012.22 1011.87 1010.93 1010.33 1009.19 1009.03 1008.71 1008.99 1009.64 1010.14 1009.94 1009.68 1009.75 1009.38 1009.20 1009.29 1010.15 1010.16 1010.43 1010.28 1009.79 1008.77 1006.97 1005.98 1005.90 1006.43 1006.52 1005.83
1000.38 1001.26 1002.11 1002.93 1003.74 1004.58 1005.47 1006.38 1007.30 1008.27 1009.33 1010.73 1011.57 1012.18 1013.32 1013.45 1012.42 1012.30 1012.02 1011.75 1011.80 1011.30 1010.77 1009.25 1008.40 1008.60 1008.60 1009.38 1009.26 1009.34 1009.17 1008.46 1008.55 1008.55 1009.02 1009.43 1009.75 1009.41 1009.36 1009.15 1007.95 1006.38 1005.82 1006.21 1006.58 1005.83 1005.25
999.03 999.97 1000.76 1001.65 1002.56 1003.41 1004.25 1005.14 1005.99 1007.09 1008.09 1009.55 1010.63 1011.31 1012.13 1012.41 1011.81 1011.41 1011.22 1011.04 1010.80 1011.20 1010.95 1009.90 1008.72 1008.27 1008.76 1009.23 1009.23 1008.69 1008.82 1008.64 1008.44 1007.63 1007.60 1007.90 1008.50 1008.25 1008.46 1008.10 1007.37 1005.60 1005.64 1005.69 1005.17 1005.08 1005.45
997.98 998.95 999.78 1000.51 1001.44 1002.44 1003.30 1004.12 1005.14 1006.27 1007.52 1008.95 1010.27 1010.88 1011.54 1012.03 1011.17 1010.45 1010.05 1009.78 1009.65 1009.91 1010.62 1009.84 1008.94 1008.65 1007.76 1008.37 1008.59 1008.42 1008.86 1008.61 1008.78 1007.96 1007.64 1007.22 1006.41 1006.86 1007.09 1006.27 1005.52 1004.86 1004.72 1004.46 1004.66 1004.87 1005.58
Wind_Speed
2 3 4 4 8 10 9 7 11 12 10 11 11 11 10 10 10 10 9 8 9 10 10 10 11 14 7 4 11 8 7 5 5 3 2 4 4 1 3 2 5 4 3 3 5 4 5
4 2 1 2 5 9 12 13 16 11 6 4 9 9 9 10 10 10 9 8 8 9 9 9 9 11 2 8 5 6 6 6 3 3 3 2 3 4 5 2 1 4 5 5 3 3 4
7 6 5 3 1 5 7 7 10 12 12 10 9 8 7 2 3 7 8 9 9 9 9 8 8 3 5 20 7 9 11 10 3 5 6 3 3 1 3 5 3 5 5 3 5 3 2
9 8 7 7 5 3 2 2 5 6 6 7 8 8 8 6 6 5 5 4 5 5 7 8 5 3 10 8 7 12 9 13 10 9 8 9 6 4 3 4 6 3 1 3 3 6 5
11 11 10 9 8 7 4 2 4 3 2 2 2 5 6 6 7 5 4 6 8 7 6 5 3 4 11 8 7 10 13 9 3 6 6 6 3 5 0 2 3 2 5 5 7 8 4
10 11 13 11 10 10 10 10 11 5 3 4 5 5 3 6 6 9 10 5 4 7 6 5 5 5 7 7 5 4 6 6 3 3 2 4 2 3 1 5 8 5 5 4 6 3 6
8 7 7 11 13 13 12 12 11 8 6 7 7 7 8 6 7 6 7 1 3 3 3 6 3 6 10 4 7 4 3 6 4 3 7 3 4 13 16 7 4 2 3 3 5 8 6
8 6 7 5 6 9 12 11 11 10 10 9 8 9 8 10 9 4 1 3 5 2 10 10 17 20 21 11 11 20 5 5 6 9 6 2 14 19 7 7 8 6 7 10 6 10 6
8 7 7 7 6 5 6 8 9 10 10 9 9 9 8 9 9 2 2 4 7 4 5 7 11 12 14 19 23 22 7 6 7 11 9 17 7 17 10 8 8 8 9 7 8 3 3
9 8 6 6 5 4 4 5 5 8 11 12 12 12 10 8 5 4 3 6 5 5 5 7 6 10 8 8 10 25 24 14 9 17 12 13 16 15 8 12 10 12 9 13 8 3 5
12 10 9 8 7 5 4 4 4 7 8 10 10 11 9 13 2 4 1 6 5 1 4 3 6 5 5 13 4 7 19 18 23 13 10 10 9 16 21 21 9 8 8 12 8 5 2
14 13 13 11 9 7 6 5 4 5 7 8 8 7 6 1 1 1 4 5 3 4 10 7 5 7 6 9 4 3 4 5 12 6 13 9 4 7 7 9 12 9 4 4 4 4 9
15 14 14 13 12 10 8 6 5 5 6 7 8 7 8 2 2 2 5 1 5 7 5 7 9 8 8 6 6 3 5 17 12 14 17 13 14 7 4 3 3 4 6 3 3 3 11
19 16 15 15 13 12 10 9 8 6 5 7 8 6 6 4 3 4 2 4 8 10 14 3 3 9 9 7 6 9 5 9 20 7 3 14 9 14 6 18 6 7 9 6 8 5 5
16 17 17 16 14 13 12 12 9 7 5 4 7 1 3 4 5 2 3 5 6 5 4 8 4 3 6 5 5 6 9 6 10 21 10 6 10 3 4 17 13 4 10 5 5 3 3
16 17 17 15 15 13 12 11 10 8 6 3 0 2 5 6 8 3 4 6 8 4 8 6 13 8 10 7 7 6 6 5 9 14 20 4 6 7 6 1 12 17 6 2 2 8 6
17 17 20 17 16 14 13 12 10 8 5 4 2 3 3 9 6 6 11 8 8 7 8 6 6 2 5 2 2 5 4 3 3 8 11 6 2 2 2 7 8 4 14 5 4 3 4
18 17 19 20 17 15 15 13 11 10 6 4 2 5 1 7 9 3 14 11 4 10 1 6 7 4 4 6 3 3 7 4 3 2 6 10 4 5 10 5 4 3 4 12 4 6 5
20 19 19 19 19 19 17 15 14 12 11 4 3 2 3 5 10 12 7 18 12 6 7 5 5 6 4 5 3 5 2 5 5 3 2 3 2 0 4 4 2 6 11 11 6 4 5
22 21 21 21 21 19 19 17 15 15 14 5 3 3 4 4 4 4 11 21 15 11 14 7 4 6 4 4 3 4 2 1 4 1 2 9 4 6 6 3 2 2 5 13 12 3 5
24 23 23 23 22 20 20 19 18 17 16 6 2 5 3 5 10 12 15 7 20 15 14 16 11 8 6 4 2 5 3 2 3 3 5 10 3 2 4 5 4 3 9 9 11 17 8
27 26 25 25 24 24 23 21 20 20 19 3 6 4 3 4 7 9 16 14 22 25 14 13 16 19 9 10 5 5 3 3 4 1 4 1 4 6 3 6 5 3 10 18 7 4 6
29 29 28 28 27 26 25 25 24 23 18 4 2 2 3 4 3 8 7 10 13 20 16 17 18 16 12 18 8 10 5 3 3 3 0 2 5 3 6 7 4 4 15 13 8 5 7
30 30 30 29 29 29 28 27 27 27 26 4 4 4 4 7 5 8 8 10 16 17 17 11 17 17 26 3 3 2 2 5 5 6 5 4 5 3 2 4 7 7 6 17 13 7 10
30 30 30 30 30 30 29 29 28 28 29 4 4 5 4 5 7 13 15 14 14 14 21 20 17 14 6 5 6 3 2 5 7 6 9 6 4 3 5 5 6 10 5 7 8 11 12
30 30 29 29 29 30 30 30 30 30 29 10 4 4 4 3 9 10 7 8 6 7 5 7 10 10 4 3 7 10 7 5 5 4 11 6 3 5 3 5 7 5 7 5 6 12 9
29 29 29 28 28 29 30 30 31 31 30 13 3 9 4 3 6 3 5 3 0 4 7 4 9 5 6 7 5 7 10 5 7 8 7 10 5 13 7 5 7 7 6 5 7 10 5
28 27 28 28 27 27 28 28 31 32 31 17 7 10 9 3 8 6 10 17 6 7 5 6 2 1 4 6 5 2 3 3 3 5 8 10 7 6 5 8 9 7 3 12 8 4 3
27 25 25 27 27 25 25 27 29 28 29 21 5 6 9 3 6 8 14 18 16 14 5 4 8 8 6 3 4 2 3 2 3 3 6 8 6 6 9 7 5 5 6 4 5 5 5
Wind_Direction
73 72 74 74 64 64 49 358 242 232 233 244 246 251 256 259 265 272 277 283 292 302 317 326 333 331 342 356 253 294 346 297 301 290 293 330 325 297 261 291 317 201 281 294 288 149 114
212 217 211 85 86 74 68 62 52 47 28 285 256 253 254 257 259 266 269 271 283 296 307 321 336 319 331 270 267 289 338 313 273 311 299 244 258 273 275 262 206 284 269 290 295 259 136
229 222 220 217 181 109 97 79 72 61 44 44 39 48 41 60 276 271 277 279 282 289 302 316 316 304 240 254 277 298 298 276 240 256 269 267 262 10 328 312 301 279 307 334 252 253 145
226 227 223 221 207 198 123 99 120 97 68 29 24 28 17 29 50 45 23 357 324 298 292 299 311 282 260 263 265 266 253 264 247 237 227 255 246 216 189 301 344 307 317 267 237 184 195
231 222 226 226 222 204 233 265 228 144 85 356 10 343 340 12 351 342 323 298 290 275 249 260 256 230 265 303 247 250 215 239 249 223 227 241 197 206 350 139 333 310 222 225 308 200 141
238 236 228 226 225 230 236 231 241 199 200 233 239 254 266 309 312 321 312 277 291 299 237 206 233 272 263 253 260 260 179 164 194 150 357 150 68 202 136 138 223 216 222 229 243 261 191
224 231 231 234 232 231 235 244 244 208 220 244 253 256 258 257 271 300 338 356 12 214 273 227 188 250 299 357 300 278 314 145 133 128 203 190 171 223 223 196 201 224 249 262 270 267 179
221 231 239 234 240 231 234 247 239 207 222 227 242 267 280 252 251 260 262 108 148 173 296 252 260 262 261 291 285 277 325 188 150 210 142 216 229 233 219 216 222 231 252 270 289 262 191
214 224 233 225 224 237 243 250 246 222 220 232 241 254 265 281 268 260 257 150 133 136 283 245 216 234 220 209 234 242 244 211 191 207 196 216 216 213 199 217 218 231 220 242 225 266 304
193 199 214 223 223 228 256 283 286 244 228 224 232 244 248 281 274 151 207 176 158 130 272 266 230 258 198 208 270 222 222 209 209 219 208 237 226 240 223 233 206 243 199 229 218 173 228
203 197 206 215 214 208 225 257 280 281 258 241 237 239 237 213 312 169 106 168 148 263 280 210 212 219 182 174 316 234 208 208 220 194 180 218 189 209 227 229 189 236 210 211 211 193 166
217 211 212 211 211 215 216 224 260 281 272 261 257 227 192 179 207 300 24 137 177 177 228 262 206 183 145 222 271 353 131 201 210 228 235 226 244 171 210 220 207 239 132 59 50 126 249
232 225 223 224 218 217 221 222 240 268 297 299 274 244 169 166 229 193 128 192 224 196 164 233 212 170 196 186 211 251 171 195 187 196 225 231 231 246 223 311 197 167 138 221 252 201 246
240 231 227 222 220 221 220 223 230 250 282 316 312 281 224 182 183 150 59 215 241 203 198 62 344 194 194 159 229 192 184 191 229 229 176 210 229 212 186 211 193 195 197 167 206 204 242
253 235 227 219 218 217 216 224 226 231 253 299 332 312 227 215 162 94 113 235 221 222 193 236 284 334 220 237 218 179 197 211 209 209 204 205 221 324 221 224 191 192 225 212 149 51 359
250 245 224 212 210 213 216 222 228 227 237 257 57 269 227 164 150 180 201 220 235 249 331 334 233 193 226 216 189 188 198 203 216 208 215 204 240 228 261 92 203 203 155 125 85 184 214
251 243 238 230 220 212 214 216 218 217 230 225 116 247 289 144 137 212 228 231 248 226 285 307 294 250 236 216 251 202 216 288 228 191 183 152 206 294 154 190 179 164 215 119 154 180 179
252 244 238 233 226 220 215 214 211 205 191 121 184 231 292 161 207 221 226 219 240 247 66 252 303 277 227 199 225 267 219 216 357 98 193 179 202 213 233 240 182 121 234 163 181 177 215
240 242 240 234 228 220 216 211 207 200 180 131 198 267 272 234 216 223 251 246 234 237 199 224 250 246 324 230 237 257 301 10 179 125 309 151 232 248 306 348 358 221 229 239 187 94 189
235 236 235 233 231 223 215 210 205 197 181 106 123 252 224 238 231 225 232 229 237 256 233 260 261 260 290 249 273 272 226 29 2 283 172 79 203 196 227 135 119 280 231 199 194 203 160
232 231 228 229 230 222 216 212 208 200 188 111 130 236 251 200 237 239 247 288 236 244 221 198 242 227 218 257 210 230 244 304 71 300 179 156 244 179 277 267 271 265 299 302 206 206 193
232 229 227 223 223 220 215 213 208 198 186 118 153 186 229 256 303 251 218 226 244 255 220 216 229 235 222 228 243 252 196 205 215 200 198 37 221 149 252 267 238 235 276 283 249 255 240
232 231 227 223 219 217 215 209 205 195 174 161 216 170 116 255 272 260 253 225 230 249 246 228 231 234 236 235 216 260 242 212 174 170 281 157 127 122 246 187 116 248 230 231 216 209 201
227 225 223 222 220 217 213 209 205 199 192 134 180 125 127 258 215 230 271 295 296 298 267 254 220 230 241 216 149 137 73 273 189 191 136 193 145 145 239 127 227 252 203 213 207 195 212
227 224 222 221 218 215 212 209 207 203 196 153 164 154 139 244 224 244 260 270 288 282 263 238 243 238 203 139 228 228 231 269 229 238 187 189 151 165 209 199 305 279 195 171 172 256 210
224 222 220 218 216 213 211 208 206 203 198 182 169 130 148 127 235 249 253 236 261 265 309 254 241 229 143 222 204 226 207 190 207 224 200 175 242 194 152 205 212 271 194 181 108 263 192
218 218 218 218 216 213 211 209 205 202 197 181 170 171 144 225 239 247 206 228 275 339 316 245 190 159 180 208 214 204 226 195 208 200 174 198 189 210 191 218 276 225 208 151 142 241 237
213 218 216 212 212 212 210 210 205 204 191 180 184 178 193 204 246 239 238 235 241 227 236 294 167 213 139 183 192 225 183 207 229 204 176 183 182 191 180 198 248 192 126 177 215 208 186
209 210 216 209 204 208 211 206 205 183 191 179 184 179 189 201 229 226 240 249 219 222 233 239 317 302 165 162 196 117 165 149 61 301 305 200 186 172 188 203 242 195 210 227 191 159 163